STARLINK-11728, 64323

Orbit data source: Space-Track

STARLINK-11728, 64323 is a payload satellite owned by SpaceX/Seattle (US) in LEO that was launched on Tue, 10 Jun 2025 UTC via an FALCON 9 launch vehicle from the Air Force Eastern Test Range (AFETR). Payload-class satellites include a variety of spacecraft equipped with specific instruments for various scientific and technological missions. These include communications satellites like Starlink; space stations such as the ISS; scientific satellites like the Hubble; Earth observation satellites from companies like Planet Labs, Umbra, and HawkEye 360; GPS; miniature CubeSats for education and research; and military/defense satellites.

Loading next visibility...
Identifier
64323, 2025-124G
Orbit
LEO
Country
Flag of USUS
Related business
Manufacturer
SpaceX/Seattle
Mission
Operational Commercial Communications
Bus & Motor
STARLINK V2MD, Unknown motor
Mass
960 kg wet, ~910 kg dry
Launch date (UTC)
2025-06-10 (9 months ago)
Launch vehicle
FALCON 9
Launch site
Air Force Eastern Test Range (AFETR)
Object type
Payload
Rocket body
Debris
Shape & HBR
Box + 2 Pan, 18.1 m
Radar Cross Section
36.964 m², Large (>1 m²)

Expand to show TLE details & history
Last TLE update: 16 hours ago

TLE from 16 hours ago
0 STARLINK-11728
1 64323U 25124G   26074.25341314  .00254923  00000-0  19267-2 0  9996
2 64323  42.9994 355.2969 0001360 287.2995  72.7723 15.70878485 43714
Epoch: 2026-03-15T06:04Z
TLE epoch observation values (Epoch: 2026-03-15T06:04:54.895Z)
Latitude
-0.00006°
Longitude
91.20521°
Altitude
355.885 km
Speed
7.698 km/s
True Right ascension
23h 41m 11s
True Declination
0° 00' 00"
Sunlit
Object was in daylight at epoch
Visualization orbit readout
Latitude
Unknown
Longitude
Unknown
Altitude
Unknown
Speed
Unknown
Apparent Right ascension
Unknown
Apparent Declination
Unknown
Sunlit
N/A
Visualization observer readout
Local Sidereal Time
02:46:06
Azimuth
Unknown
Elevation
Unknown
Doppler factor
Unknown
Orbital elements
Apogee altitude
359.283 km
Perigee altitude
357.451 km
Semi-major axis
6,736.504 km
Eccentricity
0.00014
Inclination
42.9994°
RAAN
355.2969°
Arg. of periapsis
287.2995°
True anomaly
72.78719°
Mean anomaly
72.7723°
Eccentric anomaly
72.77974°
Mean motion
3.92547 °/min
Orbital period
91.71 mins
BSTAR
0.0019267
Loading maneuver chart data...
Computing Atmospheric mass density...
Loading historical data...
Loading historical data...
Loading historical data...
Loading historical data...
Loading historical data...
Loading historical data...
Loading historical data...

Documentation

Showing up to 5 results
|